Regional Weather Roundup
Issued by NWS State College, PA

Home | Current Version | Previous Version | Text Only | Print | Product List | Glossary On
Versions: 1 2 3 4 5 6 7 8 9 10 11 12 13 14 15 16 17 18 19 20 21 22 23 24 25 26 27 28 29 30 31 32 33 34 35 36 37 38 39 40 41 42 43 44 45 46 47 48 49 50
000
ASUS41 KCTP 280910
RWRCTP

REGIONAL WEATHER ROUNDUP
NATIONAL WEATHER SERVICE STATE COLLEGE PA
500 AM EDT THU MAY 28 2015

Note: "fair" indicates few or no clouds below 12,000 feet with no
significant weather and/or obstructions to visibility.

* = STATION THAT DOES NOT REPORT PRECIPITATION /E.G. RAIN...SNOW...ETC/
    THUNDER OR FOG.

PAZ002>004-007>009-013>016-020>023-029>032-281000-
WESTERN PENNSYLVANIA

CITY           SKY/WX    TMP DP  RH WIND       PRES   REMARKS
ERIE           MOCLDY    61  57  87 W10       30.16R
MEADVILLE      CLOUDY    62  60  93 W7        30.17R FOG
FRANKLIN*      CLOUDY    61  57  88 W6        30.18R
NEW CASTLE     PTSUNNY   61  61 100 CALM      30.17R
BEAVER COUNTY  NOT AVBL
BUTLER*        PTCLDY    57  55  94 CALM      30.19R
PITTSBURGH INT MOCLDY    62  59  90 NW3       30.16R
PITTSBURGH     PTCLDY    66  56  70 SW6       30.15S
INDIANA*       MOCLDY    59  59 100 CALM      30.20S
LATROBE        PTCLDY    66  63  88 S6        30.18S
WASHINGTON CO* PTCLDY    57  55  94 CALM      30.18S
$$

PAZ004>006-010>012-017>019-024>028-033>037-041-042-045-046-049>053-281000-
CENTRAL PENNSYLVANIA

CITY           SKY/WX    TMP DP  RH WIND       PRES   REMARKS
BRADFORD       CLOUDY    60  57  89 SW6       30.16S
DUBOIS         FOG       60  57  89 SW3       30.16R VSB 3/4
CLEARFIELD     PTCLDY    61  57  87 S3        30.16F
JOHNSTOWN      PTCLDY    64  57  78 W9        30.19S
ALTOONA        CLEAR     68  59  73 SW8       30.17R
STATE COLLEGE  PTCLDY    63  60  88 CALM      30.15S
WILLIAMSPORT   PTCLDY    64  62  93 CALM      30.12R
SELINSGROVE    MOCLDY    66  65  96 CALM      30.13R
FT INDIANTOWN  FOG       63  63 100 E1        30.13S VSB 1
CAPITAL CITY   PTCLDY    66  64  93 NW3       30.12R
HARRISBURG     MOCLDY    68  65  90 CALM      30.11S
YORK           LGT RAIN  65  65 100 CALM      30.12S FOG
$$

PAZ038>040-043-044-047-048-054-055-060>062-067>071-281000-
EASTERN PENNSYLVANIA

CITY           SKY/WX    TMP DP  RH WIND       PRES   REMARKS
SCRANTON       CLEAR     64  62  93 CALM      30.13R FOG
MOUNT POCONO   CLEAR     63  60  90 W6        30.17R
ALLENTOWN      FOG       65  64  97 CALM      30.13R VSB 1/2
QUAKERTOWN*    CLOUDY    68  68 100 SW3       30.14S
READING        CLOUDY    68  66  93 CALM      30.12R FOG
LANCASTER      CLOUDY    69  68  96 SW5       30.12S FOG
COATESVILLE    CLOUDY    68  68 100 CALM      30.15R FOG
POTTSTOWN      CLOUDY    69  69 100 CALM      30.15R
BLUE BELL      CLOUDY    70  68  94 CALM      30.13R
DOYLESTOWN     CLOUDY    68  67  96 S5        30.13S
WILLOW GROVE   NOT AVBL
NORTH PHILA    CLOUDY    71  65  81 CALM      30.15R
PHILADELPHIA   PTCLDY    70  67  90 S3        30.14R
$$



USA.gov is the U.S. government's official web portal to all federal, state and local government web resources and services.